Wind_Speed
18 17 16 15 16 17 19 19 17 14 13 14 15 15 15 15 21 26 31 29 29 30 32 32 31 32 31 30 31 31 30 27 24 23 24 24 22 20 19 21 22 22 22
16 16 17 17 19 20 20 20 20 18 15 12 15 19 22 21 20 18 23 23 23 28 33 33 32 33 33 31 32 32 31 29 27 25 27 27 25 23 22 22 21 22 21
15 16 19 21 23 24 24 22 21 20 19 15 16 20 24 26 28 27 27 28 24 26 30 32 31 29 29 32 34 35 34 32 29 29 30 29 28 27 24 22 22 22 22
16 18 20 23 25 25 24 23 23 22 21 18 17 20 22 25 27 26 28 30 28 28 29 30 32 31 28 29 31 34 34 32 29 29 30 29 26 25 24 23 22 20 21
21 22 22 23 23 24 25 24 23 23 23 21 20 21 23 25 27 26 24 26 26 27 30 33 33 29 29 27 26 30 32 30 29 27 27 26 24 23 23 24 23 21 22
26 26 25 24 25 25 25 25 23 23 24 24 23 23 24 26 29 30 26 25 22 22 26 33 37 32 32 30 30 29 31 31 30 28 27 27 25 21 20 23 22 23 24
28 27 26 25 25 25 25 25 25 26 27 27 26 25 25 25 23 22 22 25 25 23 26 32 37 38 36 30 32 31 32 34 31 29 29 30 29 25 21 23 23 24 26
26 27 28 28 26 26 28 28 28 27 27 27 27 28 27 25 23 22 22 23 26 28 30 31 32 33 36 32 33 32 33 35 32 31 31 30 28 28 24 23 23 24 26
27 28 29 28 27 28 28 28 27 27 26 26 26 27 27 26 25 23 21 23 25 29 30 29 29 31 36 36 35 34 34 33 33 33 29 29 29 28 25 25 23 25 27
27 28 29 30 29 29 29 29 29 29 29 25 24 27 28 27 25 26 25 26 28 29 28 29 30 28 31 36 36 35 35 37 37 37 33 32 31 28 26 26 25 25 27
26 25 26 28 29 29 27 29 30 31 30 27 25 26 29 29 27 26 27 27 29 28 28 28 29 28 31 33 36 38 37 36 38 37 35 34 32 29 26 28 28 26 27
23 22 21 22 23 25 26 27 28 31 32 30 28 27 28 29 27 30 30 27 27 27 25 25 28 30 28 24 27 33 35 35 38 40 38 35 34 33 33 32 31 30 29
20 17 17 18 19 21 23 25 27 28 30 30 30 28 28 31 26 23 27 25 25 24 23 23 22 24 27 25 21 25 30 30 34 37 34 31 34 36 35 36 35 32 30
17 16 15 12 12 16 20 22 23 23 24 26 29 27 27 34 29 23 25 25 24 24 23 23 22 23 22 28 31 30 31 30 30 30 30 33 37 37 38 38 37 35 34
15 14 11 8 9 15 21 24 20 15 17 20 19 19 22 27 26 27 26 25 23 24 25 26 26 26 27 22 22 25 32 37 36 30 28 29 32 35 38 38 37 34 35
13 11 9 8 10 14 19 23 21 10 1 8 13 15 16 17 20 22 23 23 22 22 25 26 26 24 23 22 21 22 22 25 30 34 33 32 32 31 33 35 36 36 35
12 11 10 9 10 11 15 19 19 12 3 1 3 9 12 14 17 18 19 19 21 22 24 24 24 23 22 20 20 19 20 22 25 27 31 34 34 34 34 35 36 35 36
12 10 10 10 11 11 12 13 13 11 6 1 4 8 11 13 15 16 17 17 19 20 21 21 22 23 24 24 24 24 23 23 23 23 27 30 32 34 34 33 32 34 36
12 10 10 9 10 11 12 13 13 11 7 3 2 5 7 9 11 13 14 14 16 18 19 20 22 24 25 27 29 29 29 30 29 29 28 27 27 26 27 29 30 30 36
13 11 10 9 9 10 10 11 11 10 9 6 3 1 1 4 6 9 12 15 16 17 19 21 22 24 25 26 27 28 28 29 31 32 33 33 31 29 28 30 33 33 33
13 11 10 9 9 8 9 10 10 9 8 6 5 4 3 1 3 6 9 11 13 15 17 18 19 19 21 23 24 26 28 29 28 28 30 32 33 33 33 34 37 38 36
12 11 10 9 9 8 9 9 8 7 6 6 5 5 4 5 5 5 6 7 9 11 13 15 17 17 16 15 14 14 17 20 23 26 27 27 29 32 35 36 36 40 42
13 13 11 10 9 9 9 9 9 8 7 7 7 7 7 6 7 8 8 8 9 11 13 15 15 14 12 11 11 11 12 14 15 15 18 21 25 27 29 33 35 35 38
14 13 13 12 12 12 12 12 13 14 13 13 12 12 11 11 10 9 9 10 11 11 12 13 11 8 9 9 10 11 12 13 14 15 14 15 16 17 18 21 26 30 35
15 15 15 15 15 14 14 14 15 16 16 16 15 14 13 12 12 11 12 13 15 15 14 13 10 5 6 8 10 11 12 12 11 11 11 11 13 16 16 17 17 17 20
16 17 18 18 19 19 18 18 18 18 18 17 17 16 15 15 16 17 17 17 16 15 13 12 11 9 5 6 9 11 9 8 8 9 10 12 14 15 17 19 20 19 19
Wind_Direction
274 271 272 279 285 287 291 295 297 296 295 270 250 245 249 239 227 232 232 225 236 237 232 240 241 243 242 243 244 244 245 248 248 247 246 246 249 252 252 255 258 256 258
273 275 278 283 288 290 290 291 289 291 295 286 264 258 251 242 234 242 229 235 242 244 244 244 248 244 242 239 244 246 242 239 244 246 249 251 250 246 252 257 257 258 262
272 272 278 283 286 286 287 288 288 286 284 282 269 259 248 243 242 249 242 245 252 245 237 239 241 245 242 240 241 242 238 239 245 249 249 248 247 245 246 248 256 262 266
279 279 279 281 282 282 283 283 281 278 276 279 272 262 256 252 254 260 248 249 247 243 237 237 240 242 239 238 239 241 239 239 242 246 247 243 244 241 241 246 252 259 265
291 289 287 283 282 281 279 276 272 269 268 270 267 262 262 260 259 259 256 250 244 240 237 236 237 238 240 242 238 232 235 240 239 240 244 241 241 241 242 243 249 255 259
298 295 290 287 282 277 274 271 270 269 270 270 266 262 258 258 258 258 258 251 255 258 254 241 235 235 236 238 236 231 233 235 236 238 242 240 242 240 241 249 251 252 258
300 297 292 288 280 272 273 274 272 267 264 264 261 253 250 253 250 248 251 253 258 257 256 245 237 233 233 233 231 228 231 232 232 235 239 240 244 246 247 250 251 254 254
298 293 289 288 283 278 275 273 271 266 261 260 256 250 249 252 257 251 246 246 247 246 247 246 239 238 240 235 230 226 233 233 234 235 233 235 242 248 250 246 246 248 251
295 292 289 287 285 282 277 271 268 266 261 255 248 245 246 254 261 257 250 244 247 250 248 248 245 238 235 232 230 229 231 234 235 235 232 231 239 245 246 245 249 255 251
300 295 292 289 286 281 278 276 273 270 264 255 248 242 242 246 245 246 251 248 246 248 248 250 251 240 239 236 232 230 230 232 232 229 228 231 239 243 246 247 251 255 255
304 297 291 289 288 285 281 278 277 276 272 266 260 252 245 234 230 236 246 250 247 244 242 244 250 249 246 237 238 234 233 234 233 230 232 235 239 240 245 249 248 255 256
312 308 304 299 295 294 292 287 279 274 271 268 262 252 237 225 230 236 238 241 242 243 244 247 249 249 243 236 234 232 230 234 233 232 232 234 239 241 242 249 250 256 259
316 313 308 304 303 304 301 294 285 275 267 261 256 251 246 231 221 228 229 234 237 240 245 249 249 248 251 242 231 220 223 229 232 230 232 232 237 243 246 250 255 258 260
325 324 322 320 324 327 324 314 296 277 264 257 255 253 237 219 219 226 228 236 240 239 242 248 253 252 262 266 259 249 234 225 230 237 244 246 245 246 248 251 255 256 255
334 334 333 334 340 342 343 340 328 292 254 245 244 235 220 211 214 222 227 233 237 241 244 247 253 260 261 270 280 264 250 244 236 235 245 251 250 249 253 255 255 254 252
336 335 331 323 331 342 352 358 3 359 291 198 197 203 207 205 216 223 228 236 239 244 247 248 248 254 253 258 263 265 265 262 259 251 245 248 251 253 258 260 258 254 254
338 331 332 330 331 340 351 2 11 15 1 213 175 191 202 209 218 225 231 237 242 244 247 246 245 246 250 257 261 262 263 260 258 255 250 251 253 256 258 259 257 255 255
342 342 347 350 351 355 356 359 6 13 21 58 198 206 214 222 230 237 244 246 249 252 251 244 242 247 254 260 262 264 264 262 258 254 253 252 251 252 254 252 251 254 258
345 344 353 359 2 8 10 14 17 17 20 38 160 198 215 227 237 244 246 246 252 256 253 250 254 259 262 265 268 269 268 267 264 260 256 253 250 250 251 250 246 252 259
351 352 352 348 348 350 354 2 8 16 27 37 46 62 233 246 249 249 251 255 260 262 260 262 265 267 269 270 271 270 268 266 265 262 260 257 254 250 247 246 242 241 253
353 355 358 357 355 354 353 357 7 16 29 46 54 57 57 7 279 271 271 273 274 273 271 270 271 275 280 280 278 274 270 266 263 261 259 256 253 251 248 245 244 243 255
5 13 16 14 10 3 354 351 358 14 21 25 28 26 24 18 7 348 323 304 291 284 282 281 279 279 279 281 284 288 282 274 268 263 259 257 254 251 250 249 248 250 255
20 25 29 33 32 29 29 25 26 36 38 34 32 30 26 19 12 9 3 349 332 320 309 298 289 281 279 281 282 288 295 289 279 272 264 254 250 250 252 250 248 249 251
35 40 43 47 50 53 56 56 57 61 61 57 55 56 54 51 46 39 25 16 9 360 345 333 322 286 261 270 270 278 291 293 285 279 272 262 253 254 259 260 260 258 254
50 54 57 60 64 68 70 69 66 65 64 62 61 59 53 44 34 22 9 8 8 6 4 4 5 341 293 302 299 296 296 290 281 278 271 265 264 271 268 264 264 256 253
60 61 63 65 68 70 71 70 68 67 65 61 57 51 43 34 27 22 18 16 15 14 16 19 22 24 3 330 318 310 315 309 291 288 289 285 285 282 273 268 266 266 264
Height
5776 5775 5776 5775 5775 5775 5774 5773 5772 5772 5773 5773 5774 5775 5777 5780 5784 5787 5790 5795 5797 5799 5803 5806 5809 5810 5813 5816 5819 5821 5823 5825 5827 5828 5830 5833 5835 5836 5837 5838 5840 5841 5841
5771 5770 5770 5770 5770 5770 5770 5770 5768 5767 5768 5770 5771 5771 5773 5774 5778 5780 5784 5788 5791 5793 5796 5800 5802 5803 5806 5808 5811 5813 5815 5817 5820 5822 5823 5827 5828 5830 5831 5832 5833 5835 5836
5767 5767 5766 5766 5765 5765 5765 5765 5763 5763 5762 5764 5766 5767 5769 5771 5774 5775 5778 5781 5783 5784 5787 5792 5794 5796 5796 5799 5802 5804 5808 5811 5813 5815 5816 5819 5821 5823 5824 5825 5827 5828 5830
5763 5762 5762 5761 5760 5759 5759 5758 5757 5758 5759 5759 5759 5760 5761 5764 5766 5767 5769 5772 5775 5778 5780 5783 5786 5788 5788 5790 5794 5797 5801 5803 5806 5808 5809 5810 5813 5816 5818 5819 5821 5822 5825
5758 5756 5755 5754 5753 5752 5751 5751 5751 5751 5752 5753 5754 5754 5754 5755 5757 5760 5762 5765 5768 5771 5773 5776 5778 5780 5783 5785 5787 5790 5794 5797 5799 5801 5803 5805 5807 5810 5812 5814 5815 5817 5819
5751 5749 5747 5747 5746 5745 5744 5744 5745 5744 5744 5745 5747 5748 5749 5749 5750 5752 5755 5758 5760 5762 5764 5766 5769 5773 5776 5778 5781 5784 5787 5790 5792 5795 5798 5800 5801 5804 5806 5809 5810 5812 5813
5744 5741 5739 5738 5738 5737 5737 5737 5737 5737 5737 5738 5740 5742 5743 5745 5746 5747 5749 5750 5752 5754 5755 5758 5761 5766 5769 5770 5773 5777 5780 5783 5786 5789 5792 5794 5796 5798 5801 5803 5804 5805 5806
5737 5734 5731 5730 5730 5730 5730 5729 5728 5728 5729 5730 5731 5733 5734 5736 5739 5741 5743 5744 5746 5747 5750 5752 5754 5758 5761 5763 5766 5770 5774 5777 5780 5782 5784 5787 5789 5791 5794 5797 5798 5798 5799
5730 5726 5722 5722 5722 5721 5720 5720 5719 5719 5719 5720 5722 5725 5727 5729 5731 5732 5735 5737 5740 5741 5743 5745 5747 5748 5751 5754 5758 5762 5766 5769 5772 5775 5777 5779 5782 5785 5788 5790 5791 5792 5792
5722 5718 5715 5713 5713 5713 5711 5710 5710 5710 5711 5712 5714 5716 5719 5721 5724 5727 5729 5731 5733 5735 5737 5739 5740 5741 5743 5746 5749 5753 5757 5761 5765 5767 5770 5772 5775 5777 5780 5782 5784 5785 5786
5714 5711 5709 5706 5704 5702 5703 5702 5701 5701 5701 5703 5704 5707 5710 5714 5717 5720 5722 5724 5726 5728 5731 5733 5734 5735 5736 5739 5742 5744 5748 5751 5755 5759 5761 5765 5768 5771 5773 5774 5776 5778 5779
5707 5704 5701 5699 5697 5695 5694 5693 5693 5692 5691 5693 5695 5698 5702 5706 5710 5713 5715 5718 5720 5721 5724 5726 5728 5728 5730 5732 5733 5736 5741 5743 5746 5750 5754 5757 5759 5762 5764 5766 5767 5770 5771
5701 5699 5696 5693 5691 5689 5687 5684 5682 5680 5681 5683 5685 5688 5692 5698 5702 5705 5709 5712 5714 5715 5717 5719 5721 5723 5724 5726 5728 5730 5732 5735 5737 5741 5744 5748 5751 5754 5755 5757 5759 5760 5762
5697 5694 5691 5689 5687 5685 5681 5676 5672 5670 5671 5674 5676 5680 5684 5689 5694 5698 5702 5705 5707 5710 5712 5714 5716 5717 5719 5720 5721 5722 5724 5725 5727 5731 5735 5739 5741 5743 5746 5748 5750 5750 5753
5694 5692 5689 5688 5686 5682 5678 5671 5664 5661 5661 5665 5669 5673 5679 5683 5688 5693 5696 5699 5701 5704 5706 5708 5710 5711 5713 5714 5713 5714 5716 5719 5720 5722 5726 5729 5732 5734 5736 5738 5740 5742 5744
5694 5691 5689 5687 5685 5681 5677 5671 5664 5659 5659 5661 5665 5671 5675 5680 5684 5688 5691 5694 5696 5699 5701 5702 5704 5706 5707 5709 5710 5710 5710 5711 5713 5714 5718 5721 5724 5726 5728 5729 5730 5732 5734
5693 5691 5689 5686 5684 5681 5677 5672 5668 5665 5663 5665 5667 5670 5674 5677 5681 5684 5686 5688 5690 5692 5694 5696 5698 5700 5701 5702 5704 5704 5705 5705 5707 5708 5710 5712 5714 5717 5719 5720 5722 5723 5724
5693 5691 5688 5685 5683 5680 5678 5675 5672 5669 5668 5668 5670 5672 5674 5677 5679 5680 5682 5683 5685 5687 5689 5690 5692 5693 5694 5695 5696 5697 5697 5698 5699 5700 5702 5704 5706 5708 5709 5711 5713 5714 5715
5693 5691 5688 5686 5684 5681 5679 5677 5674 5672 5671 5671 5672 5673 5674 5676 5677 5678 5679 5681 5682 5683 5684 5685 5686 5687 5688 5688 5689 5689 5689 5689 5691 5693 5694 5696 5697 5699 5700 5702 5705 5706 5705
5693 5690 5688 5686 5684 5682 5681 5679 5677 5675 5673 5672 5672 5673 5674 5675 5675 5676 5677 5678 5678 5678 5679 5679 5680 5680 5680 5680 5680 5680 5680 5680 5681 5683 5684 5686 5688 5689 5691 5694 5696 5698 5699
5693 5690 5687 5686 5684 5683 5682 5680 5678 5677 5675 5674 5674 5673 5673 5673 5674 5674 5674 5674 5674 5674 5674 5674 5674 5673 5673 5672 5671 5670 5670 5671 5671 5672 5673 5675 5677 5680 5682 5684 5686 5689 5690
5693 5690 5688 5686 5685 5684 5682 5681 5679 5678 5677 5676 5675 5675 5674 5674 5673 5672 5672 5671 5671 5670 5669 5669 5668 5667 5667 5666 5665 5663 5662 5661 5662 5663 5664 5666 5668 5670 5673 5675 5677 5680 5682
5694 5691 5689 5687 5686 5684 5683 5681 5680 5679 5678 5677 5677 5676 5675 5674 5673 5672 5671 5670 5668 5667 5665 5663 5662 5662 5662 5661 5661 5660 5659 5658 5657 5657 5658 5658 5660 5662 5664 5665 5668 5669 5671
5697 5694 5691 5689 5688 5687 5686 5684 5683 5682 5681 5680 5679 5678 5676 5675 5674 5673 5671 5669 5667 5664 5662 5659 5657 5657 5658 5658 5658 5658 5657 5656 5655 5655 5655 5655 5656 5657 5658 5659 5659 5659 5661
5700 5698 5695 5693 5692 5691 5689 5688 5687 5686 5685 5684 5682 5681 5680 5678 5676 5675 5673 5671 5668 5665 5661 5658 5656 5655 5655 5656 5655 5655 5654 5653 5652 5653 5653 5653 5653 5653 5654 5653 5653 5653 5653
5704 5702 5700 5698 5696 5695 5694 5693 5691 5690 5689 5688 5686 5685 5683 5681 5678 5676 5673 5671 5667 5664 5661 5659 5657 5655 5655 5655 5654 5653 5652 5651 5651 5651 5651 5650 5650 5649 5648 5648 5648 5647 5647